Погода в Алексеевке

Россия / Омская область     55°20′58″N   72°04′33″E
темп.,
°C
ветер,
м/с
пор.,
м/с
влажн.,
%
обл.,
%
осадки,
мм/ч
давл.,
гПа
погр.,
м
21 апреля, ср
ср2100:000зюз71651100 0.0 1024456
03:000з7156166 0.0 1022400
06:00−1сз497974 0.0 1024233
09:00+2с69645 0.0 1025763
12:00+5ссз795046 0.0 10261456
15:00+6с79425 0.0 10281578
18:00+6с784156 0.0 10301730
21:00+2св48575 0.0 1034281
22 апреля, чт
чт2200:00−1всв38702 0.0 1037291
03:00−2всв26750 0.0 1038295
06:00−2всв25762 0.0 1041211
09:00+1в34524 0.0 1043713
12:00+4вюв33381 0.0 10431180
15:00+6юв33345 0.0 10431422
18:00+7ююв34345 0.0 10431358
21:00+4ююв34495 0.0 104464
23 апреля, пт
пт2300:00+2ююв37590 0.0 1044122
03:000ююв38670 0.0 1044156
06:000ююв511674 0.0 1044213
09:00+4ю58515 0.0 1045545
12:00+8ю673862 0.0 10431304
15:00+10ю56315 0.0 10411651
18:00+10ю563072 0.0 10401607
21:00+6юв484624 0.0 1040143
24 апреля, сб
сб2400:00+4ююв51151100 0.0 1039240
03:00+2ююв4106097 0.0 1039192
06:00+1ююв486394 0.0 1038147
09:00+6ююв5846100 0.0 1037497
12:00+9ююв6734100 0.0 10361271
15:00+11ю5628100 0.0 10341574
18:00+10ююв562998 0.0 10321547
21:00+7юв494398 0.0 1032164
25 апреля, вс
вс2500:00+6юв5124798 0.0 1031285
03:00+4ююв51352100 0.0 1030287
06:00+4юв51354100 0.0 1029310
09:00+6ююв61346100 0.0 1028481
12:00+10ююв81033100 0.0 1027851
15:00+12ююв81027100 0.0 10251341
18:00+13ююв7113197 0.0 10231809
21:00+10юв71539100 0.0 1022490